VK1ET-13 Weather Reports


time (UTC)temp
F
wind
direction
speed
knots
gust
knots
rain 1hr
in
rain 24hr
in
rain mn
in
humidity
%
barometer
mb
20260505021528 62 343 6.1 13.0 0.00 0.00 0.00 61 1018.3
20260505020517 62 329 4.3 13.0 0.00 0.00 0.00 62 1018.5
20260505015527 61 346 5.2 11.3 0.00 0.00 0.00 64 1018.7
20260505014536 62 339 5.2 9.6 0.00 0.00 0.00 63 1018.7
20260505013524 61 329 4.3 11.3 0.00 0.00 0.00 64 1018.7
20260505012534 62 4 4.3 11.3 0.00 0.00 0.00 64 1018.9
20260505011521 61 340 6.1 13.0 0.00 0.00 0.00 64 1018.8
20260505010537 61 343 4.3 9.6 0.00 0.00 0.00 62 1018.8
20260505005519 60 340 7.0 11.3 0.00 0.00 0.00 63 1018.8
20260505004526 60 341 4.3 9.6 0.00 0.00 0.00 64 1018.8
20260505003536 60 343 5.2 10.4 0.00 0.00 0.00 63 1018.8
20260505002524 60 316 5.2 9.6 0.00 0.00 0.00 63 1018.7
20260505001534 60 334 7.0 11.3 0.00 0.00 0.00 63 1018.5
20260505000522 59 312 4.3 10.4 0.00 0.00 0.00 65 1018.5
20260504235532 59 303 6.1 9.6 0.00 0.00 0.00 67 1018.4
20260504234520 59 314 4.3 10.4 0.00 0.00 0.00 69 1018.4
20260504233542 59 323 5.2 10.4 0.00 0.00 0.00 71 1018.2
20260504232517 58 323 5.2 9.6 0.00 0.00 0.00 73 1018.3
20260504231525 58 313 7.0 13.0 0.00 0.00 0.00 76 1018.0
20260504230534 57 311 4.3 9.6 0.00 0.00 0.00 81 1018.2
20260504225524 57 312 4.3 8.7 0.00 0.00 0.00 77 1018.2
20260504224532 56 322 4.3 11.3 0.00 0.00 0.00 83 1018.4
20260504223520 56 339 4.3 9.6 0.00 0.00 0.00 82 1018.5
20260504222529 57 333 2.6 5.2 0.00 0.00 0.00 80 1018.5
20260504221531 55 337 1.7 4.3 0.00 0.00 0.00 82 1018.4
20260504220526 55 342 1.7 5.2 0.00 0.00 0.00 81 1018.2
20260504215536 55 320 2.6 5.2 0.00 0.00 0.00 81 1017.9
20260504214523 54 325 1.7 3.5 0.00 0.00 0.00 82 1017.9
20260504213532 54 311 0.9 2.6 0.00 0.00 0.00 83 1017.7
20260504212521 53 337 1.7 4.3 0.00 0.00 0.00 85 1017.5
20260504211537 52 197 0.9 3.5 0.00 0.00 0.00 86 1017.4
20260504210518 52 76 1.7 2.6 0.00 0.00 0.00 87 1017.3
20260504205527 53 120 0.9 1.7 0.00 0.00 0.00 83 1017.2
20260504204517 54 288 2.6 5.2 0.00 0.00 0.00 82 1016.9
20260504203525 54 275 2.6 6.1 0.00 0.00 0.00 81 1016.9
20260504202535 54 268 2.6 4.3 0.00 0.00 0.00 81 1016.8